Location: Unspecified
(0.0000°N, 0.0000°E)
Time: 14:21:55
(UTC+00:00)

Vanguard 1 Rocket - Pass Details

Date: 19 March 2018
Orbit: 654 x 4223 km, 34.3° (Epoch: 21 April)

Event Time Altitude Azimuth Distance (km) Brightness Sun altitude
Rises 05:51:12 0° 247° (WSW) 8,306 11.7 -4.2°
Reaches altitude 10° 06:02:34 10° 226° (SW) 6,697 11.4 -1.3°
Maximum altitude 06:11:57 14° 198° (SSW) 5,561 11.2 1.0°
Drops below altitude 10° 06:19:22 10° 170° (S) 5,140 11.4 2.9°
Sets 06:25:39 0° 146° (SE) 5,377 11.9 4.4°
